Regional Weather Roundup
Issued by NWS

Home | Current Version | Previous Version | Graphics & Text | Print | Product List | Glossary On
Versions: 1 2 3 4 5 6 7 8 9 10 11 12 13 14 15 16 17 18 19 20 21 22 23 24 25 26 27
000
ASUS45 KSLC 232110
RWRUT

UTAH REGIONAL WEATHER ROUNDUP
NATIONAL WEATHER SERVICE SALT LAKE CITY UT
300 PM MDT SUN APR 23 2017

UTZ001>011-023>025-232200-

NORTHERN UTAH

CITY           SKY/WX    TMP DP  RH WIND       PRES   REMARKS
BRIGHAM CITY   CLOUDY    63  32  31 S6        29.82S
HILL AFB       PTSUNNY   61  36  39 N9        29.81F
LOGAN          CLOUDY    63  36  36 W8        29.81S
OGDEN          CLOUDY    61  36  39 NW12      29.80S
SALT LAKE CITY CLOUDY    63  39  41 NW10      29.79F
TOOELE VALLEY  CLOUDY    59  41  51 CALM      29.81F
WENDOVER       CLOUDY    64  32  30 VRB5      29.82R
HEBER CITY     CLOUDY    66  28  24 SW16G25   29.78F
WEST JORDAN    CLOUDY    63  44  50 NW15      29.80F

$$

UTZ011>015-024>027-232200-

CENTRAL/NORTHEAST UTAH

CITY           SKY/WX    TMP DP  RH WIND       PRES   REMARKS
PROVO AIRPORT  CLOUDY    69  32  25 CALM      29.76F
MOAB/CANYONLAN CLOUDY    73  22  14 W10G18    29.79F
DELTA          CLOUDY    73  27  17 SW23G30   29.74F
PRICE          MOSUNNY   66  20  17 VRB3      29.86F
ROOSEVELT      CLOUDY    70  23  17 E5        29.83F
VERNAL         CLOUDY    69  23  17 SW13G20   29.81F

$$

UTZ013>016-019>022-027-232200-

SOUTHERN UTAH

CITY           SKY/WX    TMP DP  RH WIND       PRES   REMARKS
BRYCE CANYON   SUNNY     65  20  17 SW21G33   29.96F
CEDAR CITY     PTSUNNY   73  28  18 SW21G36   29.82F
MILFORD        PTSUNNY   76  26  15 SW36G45   29.77S
ST GEORGE      CLOUDY    87  21   9 S31       29.69F
HANKSVILLE     CLOUDY    77  21  12 S13G23    29.81F
BLANDING       MOSUNNY   72  25  17 S9G22     29.99F

$$

REGIONAL REPORTS     COLORADO/ARIZONA

CITY           SKY/WX    TMP DP  RH WIND       PRES   REMARKS
CRAIG, CO      CLOUDY    69  24  18 SW17G32   29.84F
GRAND JUNCTION CLOUDY    74  26  16 NW14      29.79F
RIFLE, CO      CLOUDY    75  22  13 W16G23    29.81F
MONTROSE, CO   CLOUDY    76  21  12 SW24G32   29.86F
CORTEZ, CO     CLOUDY    71  24  17 S14       29.96F
COLORADO CITY    N/A     81  23  12 SW21G32   29.85F
PAGE, AZ       CLOUDY    75  23  14 N8        29.81F
GRAND CANYON   CLOUDY    72  22  15 SW22G38   29.98F
KINGMAN, AZ    MOSUNNY   86  19   8 SW32G47   29.81F
FLAGSTAFF, AZ  PTSUNNY   68  19  15 SW32G46   30.01F

$$

REGIONAL REPORTS    NEVADA/IDAHO/WYOMING

CITY           SKY/WX    TMP DP  RH WIND       PRES   REMARKS
LAS VEGAS, NV  MOSUNNY   89  17   7 SW22G31   29.68R
ELY, NY        CLOUDY    58  27  30 NW20G26   29.85R
ELKO, NV       CLOUDY    63  23  21 W20G28    29.87S
POCATELLO, ID  CLOUDY    59  36  42 W16G24    29.82S
BURLEY, ID     CLOUDY    61  34  36 W12       29.80F
FORT BRIDGER,  CLOUDY    63  25  23 W20G31    29.86S
EVANSTON, WY   CLOUDY    60  29  30 W26G33    29.85R
ROCK SPRINGS,  PTSUNNY   64  20  18 S13       29.79F
KEMMERER, WY     N/A     55  27  33 W24G30    29.85R

$$




USA.gov is the U.S. government's official web portal to all federal, state and local government web resources and services.